Theta_e
308 309 306 309 309 310 309 313 313 311 310 309 310 311 311 312 312 315 318 316 310 311 311 315 316 316 315 315 313 314 309 311 313 316 316 316 314 317 318 317 318 319 326 336 352
308 308 306 308 309 309 309 314 311 310 310 311 312 317 315 319 317 315 312 311 313 313 314 313 317 317 314 314 313 309 307 310 310 313 313 314 315 315 316 316 317 318 342 348 351
307 308 307 308 309 309 309 314 311 311 310 315 318 319 319 321 318 314 312 313 312 315 316 316 317 317 316 312 312 309 309 309 311 313 314 313 314 315 316 314 317 318 319 352 354
306 308 308 309 309 309 309 313 314 311 310 316 314 317 319 316 312 314 314 314 314 314 314 313 314 316 314 313 315 311 312 311 311 313 312 311 313 313 315 315 316 317 318 320 337
307 308 308 309 309 309 310 314 315 313 311 310 312 316 315 315 315 314 314 314 314 314 314 313 313 312 311 312 313 311 312 314 314 314 314 313 310 312 312 314 315 317 318 320 320
308 308 308 309 311 312 313 315 315 316 311 312 313 315 316 314 315 314 314 314 314 314 314 314 313 312 312 313 313 314 313 313 314 313 313 310 310 312 313 314 315 316 318 319 320
310 307 308 309 315 314 316 317 317 315 313 314 317 318 316 316 315 315 315 315 314 314 314 313 313 312 313 312 314 314 312 311 312 312 312 313 313 312 313 314 314 315 316 318 319
315 307 309 309 315 318 318 317 316 315 316 315 313 317 317 317 316 316 316 316 315 314 314 314 314 313 313 314 312 311 311 312 311 314 315 313 313 313 316 316 314 314 316 317 318
315 311 309 308 314 315 317 315 315 314 317 316 318 317 317 317 317 317 317 316 316 315 314 314 314 313 313 310 309 309 312 313 314 315 315 315 315 315 316 316 315 315 315 316 319
315 313 308 309 313 317 316 314 314 316 318 316 318 316 316 317 317 317 317 317 316 315 315 313 313 311 308 309 313 312 312 312 314 313 313 314 315 314 316 315 315 315 314 314 316
315 312 308 311 314 317 314 314 314 315 315 316 316 317 317 318 317 317 318 317 315 315 313 313 311 312 312 310 313 312 313 314 314 312 315 315 314 315 314 314 314 315 314 313 315
315 310 308 312 317 315 313 314 315 316 316 316 318 317 318 318 318 317 317 316 315 314 313 311 311 311 312 312 313 312 313 314 313 313 314 315 315 313 313 314 314 314 315 315 314
315 309 309 312 314 313 313 314 316 318 315 318 320 320 318 316 317 317 318 318 315 314 313 313 314 315 314 314 315 314 314 314 313 313 312 313 313 313 314 314 314 314 315 316 314
314 311 311 313 314 314 314 314 315 319 310 315 315 317 315 315 317 318 318 318 315 315 314 313 313 316 317 317 317 315 313 314 314 313 313 314 314 312 312 312 312 313 314 316 315
315 312 312 314 314 314 315 315 316 319 312 314 314 314 315 316 314 316 317 316 316 315 316 317 316 316 317 317 317 316 314 314 315 313 310 311 313 312 310 312 312 312 314 315 315
315 314 314 313 314 315 315 318 318 312 314 313 314 314 314 314 312 314 315 315 317 317 316 316 316 315 316 317 317 317 315 313 307 307 310 309 311 311 310 310 310 311 313 316 317
314 316 316 315 314 315 317 319 317 311 313 314 314 314 314 313 312 314 313 313 316 318 317 315 315 314 316 316 314 314 313 315 314 309 312 311 313 312 311 313 312 311 312 314 315
314 317 319 316 315 315 316 311 315 316 314 313 314 314 315 313 313 314 312 312 315 315 316 318 319 315 315 315 315 315 314 315 315 313 314 314 314 313 313 315 316 317 317 317 314
315 318 317 316 316 315 317 311 313 314 316 315 314 315 314 313 313 312 311 314 317 315 318 321 318 315 315 314 315 316 315 314 316 314 315 313 313 314 315 316 316 316 316 315 318
314 318 315 316 315 315 312 313 314 315 317 316 314 314 314 313 313 312 312 315 317 316 314 318 319 316 315 314 314 315 314 315 313 316 315 317 318 316 316 317 317 316 315 315 316
313 317 316 315 316 315 311 312 314 316 316 317 314 314 313 314 313 313 313 314 315 316 315 316 318 316 315 315 313 314 313 312 311 314 314 318 317 316 316 318 317 316 315 315 316
315 312 316 315 313 310 312 313 315 316 314 315 315 313 312 314 315 315 313 314 314 316 317 317 317 318 316 314 314 314 314 311 312 315 315 315 315 315 316 319 317 315 315 314 314
316 315 316 314 311 309 310 313 314 316 313 313 312 312 312 313 314 314 313 313 315 315 317 316 317 318 314 312 316 316 316 313 313 314 316 317 315 315 315 315 315 314 314 314 314
315 311 315 314 313 311 310 312 314 314 313 311 311 312 310 311 311 312 314 312 315 316 317 315 317 317 318 317 317 317 316 315 315 318 317 317 317 316 316 315 316 315 314 314 314
314 312 313 310 312 311 310 311 313 314 313 311 311 311 310 308 311 312 312 311 313 316 318 316 318 317 315 315 316 317 317 316 317 317 319 316 315 315 315 315 316 316 315 315 315
312 314 313 311 311 310 310 311 313 313 310 311 310 310 309 308 311 312 312 312 311 315 316 315 316 316 317 316 316 317 317 317 317 315 316 315 315 313 314 315 315 315 315 316 318
311 311 311 311 310 310 309 312 313 312 313 311 311 309 309 310 311 309 310 311 311 313 315 316 315 315 317 314 315 315 316 317 316 316 316 320 317 316 316 316 316 315 316 315 317
Wind_Speed
20 14 10 10 11 14 17 19 19 15 15 16 14 14 13 11 10 11 8 8 8 10 9 5 4 9 3 1 4 3 3 4 4 2 5 16 7 9 13 10 25 14 34 34 25
23 16 11 8 10 14 17 18 16 15 16 15 13 14 12 11 14 16 15 9 7 8 8 8 9 10 2 1 2 3 3 5 7 4 7 22 9 24 11 16 20 25 28 17 37
25 17 12 9 10 13 16 17 15 15 15 13 12 13 13 3 4 14 13 13 12 8 11 13 11 11 3 2 2 1 5 7 10 24 23 21 16 25 11 6 11 19 20 2 16
28 18 13 10 11 13 14 14 15 15 12 9 11 13 10 12 4 11 11 12 12 11 13 15 14 7 4 4 8 3 10 9 10 19 17 9 18 17 13 19 22 18 17 14 16
32 19 14 11 12 12 12 13 14 13 11 8 9 9 8 9 9 10 12 9 10 12 12 14 10 8 3 6 11 4 3 16 21 22 22 22 11 16 18 23 18 10 12 13 17
35 21 15 14 14 13 11 12 14 12 9 8 8 6 7 4 9 5 6 10 10 15 8 11 9 10 7 4 1 9 12 17 17 18 14 8 9 8 12 17 12 10 10 10 15
37 23 15 14 15 13 12 13 15 11 8 7 9 7 2 4 7 9 7 9 8 11 8 11 10 5 6 6 8 9 7 7 2 7 5 20 16 12 9 19 13 13 11 10 13
37 27 14 11 10 11 12 15 15 10 7 6 7 7 1 5 5 6 6 10 9 10 8 13 11 10 3 6 8 5 3 4 6 6 5 6 16 10 16 27 19 13 8 9 15
37 29 14 10 8 9 11 16 16 8 3 10 5 5 2 8 6 3 5 8 10 7 6 8 8 4 4 3 5 4 5 4 5 4 2 4 15 14 26 23 19 19 16 9 10
38 31 12 9 6 11 10 14 12 3 3 7 4 5 3 8 8 12 9 8 8 11 10 2 2 1 3 3 5 7 6 6 6 5 4 6 19 17 16 20 24 21 22 12 12
38 29 11 8 5 9 12 10 12 2 14 5 8 6 13 10 11 12 8 9 11 6 2 4 1 6 13 8 12 7 9 15 13 9 3 13 14 16 18 21 25 19 24 18 16
40 24 8 7 4 9 11 8 9 8 7 8 5 14 12 14 15 18 10 6 3 5 3 4 6 12 8 9 11 11 13 14 12 10 7 9 15 18 17 14 27 18 25 20 19
37 17 9 6 6 9 11 10 11 12 1 7 5 8 15 15 6 10 7 5 5 4 6 5 12 15 11 7 8 7 10 13 14 10 5 8 12 10 18 18 28 16 23 21 24
34 13 13 6 3 11 12 12 10 10 4 4 5 2 15 7 3 8 8 5 3 6 5 7 7 8 17 17 11 12 9 16 12 6 7 6 13 16 10 18 16 13 18 22 20
28 11 14 12 6 10 12 11 8 5 4 5 4 9 16 9 12 9 6 6 6 12 2 11 12 18 17 13 11 8 11 10 7 6 3 1 1 18 5 18 18 7 18 20 18
24 10 14 12 12 14 16 12 0 5 2 4 4 8 7 6 12 9 7 11 5 3 3 9 22 6 5 11 12 13 4 4 4 2 5 5 6 19 7 7 6 6 7 11 14
27 3 13 18 14 17 20 3 5 5 5 5 5 5 5 4 8 3 5 5 1 6 7 12 5 5 5 6 4 2 4 2 3 2 6 4 7 9 15 12 11 14 17 17 16
27 7 8 16 18 19 20 5 5 1 5 5 5 6 3 5 5 6 7 4 4 3 3 6 8 6 4 6 7 10 6 4 5 3 3 6 7 5 4 8 18 20 21 21 17
28 8 12 17 18 16 11 5 4 3 3 5 7 3 2 3 3 4 5 3 4 4 0 5 6 12 14 10 5 1 4 3 3 3 1 4 7 8 4 10 15 21 24 21 25
30 1 12 25 17 9 5 3 3 4 6 5 4 2 4 4 2 4 3 4 3 6 9 4 13 9 7 6 4 5 5 3 2 3 4 4 5 7 7 12 15 19 22 32 29
27 5 11 23 7 8 3 4 5 19 17 3 4 6 6 4 4 3 5 7 4 4 7 2 5 7 7 3 3 1 1 1 4 3 3 3 4 3 3 3 10 16 25 31 37
19 4 12 19 8 4 2 7 12 6 18 6 5 3 6 6 5 6 7 8 11 5 3 2 4 6 12 21 14 7 4 6 3 2 4 2 7 3 2 4 7 19 28 38 40
21 7 10 14 4 4 6 7 6 4 6 3 4 3 4 4 5 4 6 11 5 7 6 6 3 5 8 5 4 2 3 2 2 2 6 4 4 6 7 3 11 20 35 46 44
9 4 8 7 9 3 5 5 6 9 10 12 14 6 5 5 4 7 8 5 8 11 8 10 3 6 6 12 4 8 14 15 8 3 5 10 16 8 6 3 2 16 29 43 46
7 2 2 4 5 10 4 4 5 6 5 13 5 4 12 6 7 6 5 7 7 8 6 6 6 10 18 21 20 22 21 18 13 8 8 10 17 14 13 12 6 4 30 37 41
6 5 7 14 11 4 4 3 2 8 3 8 5 18 14 8 12 20 9 11 8 3 4 1 4 4 10 14 13 21 19 16 16 13 16 17 21 12 15 16 6 8 22 28 32
5 5 8 7 3 3 3 4 16 15 12 9 16 15 15 13 21 34 34 31 15 6 8 4 2 3 7 6 12 9 4 1 2 4 12 8 5 10 11 12 6 5 24 31 28
Wind_Direction
5 357 342 346 353 357 360 3 2 9 5 3 6 11 19 40 63 52 36 16 25 24 7 5 352 355 289 255 200 153 62 235 249 275 279 295 334 297 319 311 318 313 312 267 210
7 6 360 354 359 0 4 7 12 14 9 13 27 32 40 82 79 40 12 3 358 12 11 7 13 360 4 272 199 124 142 234 205 224 269 284 272 294 297 307 299 327 357 186 202
9 12 13 9 5 5 6 10 15 12 14 29 41 28 39 79 39 13 27 49 55 42 25 8 2 354 324 328 262 200 214 236 259 271 277 278 283 281 272 261 279 308 333 243 183
9 10 16 15 9 7 8 8 9 11 15 30 24 24 46 37 48 24 45 41 39 25 11 9 351 14 317 352 321 297 262 265 307 313 311 284 288 279 257 266 289 292 304 299 275
8 6 9 11 9 7 11 7 6 6 10 12 15 30 41 46 32 55 38 25 13 4 6 356 1 3 342 305 327 211 329 314 307 306 303 297 274 270 269 277 277 284 301 281 287
10 6 2 6 9 10 15 11 4 360 4 19 16 0 21 50 26 48 21 22 359 338 325 339 327 330 291 291 238 306 295 297 313 304 299 277 274 289 287 297 282 287 281 267 293
9 5 4 7 13 18 10 3 359 353 357 7 12 11 42 17 359 351 331 354 341 349 324 329 329 305 317 310 315 281 300 314 301 326 305 335 299 236 304 303 298 300 293 287 293
6 1 358 6 16 16 8 355 350 345 357 339 328 342 291 337 323 341 337 345 340 328 308 326 319 310 270 295 322 343 20 1 300 355 335 24 280 317 356 334 322 301 257 267 294
1 358 356 356 359 3 356 346 338 334 315 342 316 343 295 323 322 344 316 317 345 347 314 312 285 299 325 44 347 339 269 275 311 286 249 84 285 292 326 323 314 304 286 262 271
357 355 349 356 360 10 1 358 359 21 301 326 313 325 290 316 315 327 302 290 295 312 316 280 266 9 19 86 258 269 284 269 275 278 304 260 269 290 315 312 306 310 295 257 255
356 354 353 1 20 23 13 9 9 353 320 279 293 262 278 303 291 310 304 267 267 276 271 308 116 235 254 225 246 260 268 268 272 272 233 272 275 298 306 300 295 302 293 259 247
355 358 7 7 47 28 22 26 16 331 308 322 294 266 299 303 279 293 270 230 237 265 326 351 238 240 250 256 239 245 247 257 268 255 183 259 277 287 284 273 278 281 278 269 250
355 14 10 2 48 20 6 9 1 356 303 308 283 288 310 311 269 272 259 249 231 254 271 225 259 286 277 269 304 242 243 261 269 284 262 259 274 279 286 288 277 270 274 273 249
356 19 18 34 13 9 12 348 341 344 61 305 342 8 353 340 330 315 290 292 290 269 285 253 265 295 293 281 271 260 228 252 268 280 278 151 286 280 287 277 271 259 264 274 237
359 12 21 30 16 1 353 337 313 315 49 311 8 329 346 38 348 3 347 305 256 285 139 261 297 307 292 271 257 261 261 263 277 278 303 215 305 276 304 287 280 251 247 257 239
2 25 29 20 8 355 341 330 355 44 308 340 345 328 354 4 343 339 318 329 298 317 263 265 293 264 237 290 247 252 304 338 30 43 262 223 227 285 250 254 287 279 276 252 254
359 297 21 14 1 356 342 4 33 93 344 307 290 313 316 311 318 22 310 343 47 356 326 326 291 289 237 291 331 76 69 332 320 359 250 207 305 257 290 309 296 290 299 284 277
360 347 354 1 349 343 342 49 64 21 269 289 274 286 270 329 295 321 312 319 223 159 299 323 325 356 1 311 295 298 175 183 220 208 274 293 265 261 231 349 351 353 360 17 297
2 52 27 352 326 334 336 49 208 250 283 293 314 272 275 262 263 339 271 243 238 166 84 301 272 304 285 284 181 193 171 215 9 297 195 242 285 287 301 354 354 349 352 358 351
354 277 18 349 344 341 66 255 264 237 325 295 274 278 284 267 301 327 290 249 258 188 149 227 292 262 282 309 232 189 148 65 77 239 260 263 269 244 352 344 344 342 342 341 339
354 358 343 350 10 19 99 248 284 322 335 297 262 261 258 281 255 250 263 285 240 211 173 244 232 292 328 245 241 170 186 164 172 198 214 287 256 353 321 329 329 324 327 335 332
349 360 343 354 44 25 344 306 312 306 344 294 328 304 253 308 254 269 232 211 273 174 214 133 273 281 279 290 262 241 284 179 158 269 261 257 264 238 95 338 336 323 328 326 323
339 309 349 3 55 331 322 299 270 299 318 341 305 292 321 287 321 253 254 275 233 170 213 166 249 296 322 341 59 128 300 171 64 140 217 233 254 236 247 318 0 336 331 318 314
342 347 340 17 21 93 333 285 311 326 312 5 300 300 358 300 252 276 290 282 255 222 210 159 230 228 258 260 259 276 269 268 272 213 275 244 283 283 329 264 85 338 318 304 307
4 315 23 305 328 325 243 254 294 351 304 325 314 353 336 293 281 241 277 307 249 250 181 180 238 232 255 270 278 273 273 274 262 238 245 285 278 285 288 268 208 314 301 297 301
3 348 315 289 285 293 317 283 352 337 289 310 337 307 301 268 262 287 300 292 259 77 156 227 272 273 283 275 273 278 274 277 264 268 271 262 271 277 275 286 226 200 268 285 300
316 303 300 279 284 327 240 278 311 312 295 274 307 301 295 276 300 289 282 273 253 198 201 179 284 306 287 322 306 289 320 38 324 327 297 265 307 329 326 315 288 222 282 280 289